Regional Weather Roundup
Issued by NWS

Home | Current Version | Previous Version | Graphics & Text | Print | Product List | Glossary On
Versions: 1 2 3 4 5 6 7 8 9 10 11 12 13 14 15 16 17 18 19 20 21 22 23 24 25 26 27 28 29 30 31 32 33 34 35 36 37 38 39 40 41 42 43 44 45 46 47 48 49 50
000
ASUS43 KLMK 170702
RWRKY
KENTUCKY REGIONAL WEATHER ROUNDUP
NATIONAL WEATHER SERVICE LOUISVILLE KY
300 AM EDT THU APR 17 2014

NOTE "FAIR" INDICATES FEW OR NO CLOUDS BELOW 12,000 FEET
WITH NO SIGNIFICANT WEATHER AND/OR OBSTRUCTIONS TO VISIBILITY.

KYZ001>023-026-027-061>063-070>075-170800-
WESTERN AND SOUTH CENTRAL KENTUCKY

CITY           SKY/WX    TMP DP  RH WIND       PRES   REMARKS
PADUCAH        CLEAR     46  31  55 S7        30.18R
HENDERSON      PTCLDY    45  28  53 SE6       30.20S
OWENSBORO      PTCLDY    43  29  58 CALM      30.21S
HOPKINSVILLE   CLEAR     46  30  53 SE6       30.21R
BOWLING GREEN  MOCLDY    43  32  65 S5        30.24S
GLASGOW        NOT AVBL
$$

KYZ024-025-028>034-038-045-046-053-170800-
NORTH CENTRAL KENTUCKY

CITY           SKY/WX    TMP DP  RH WIND       PRES   REMARKS
LOUISVILLE/SDF CLOUDY    43  26  51 SE5       30.24S
LOUISVILLE/LOU PTCLDY    45  25  45 CALM      30.24F
FORT KNOX      PTCLDY    40  28  60 E3        30.22S
$$

KYZ035>037-039>044-047>052-055>060-089>105-170800-
NORTHEAST KENTUCKY

CITY           SKY/WX    TMP DP  RH WIND       PRES   REMARKS
LEXINGTON      PTCLDY    44  23  43 SE7       30.26S
COVINGTON      MOCLDY    41  23  48 E7        30.25F
FRANKFORT      CLEAR     39  25  57 E6        30.24F WCI  35
$$

KYZ054-064>069-076>088-106>120-170800-
SOUTHEAST KENTUCKY

CITY           SKY/WX    TMP DP  RH WIND       PRES   REMARKS
JACKSON        CLEAR     43  19  38 CALM      30.29R
LONDON         CLEAR     36  30  79 CALM      30.29R
SOMERSET       NOT AVBL
MIDDLESBORO    NOT AVBL
MONTICELLO     SUNNY     38  29  70 W6        30.30S WCI  33
$$




USA.gov is the U.S. government's official web portal to all federal, state and local government web resources and services.